Location: ????????????
(47.8667°N, 38.9333°E)
Time: 16:47:46
(UTC+00:00)

Daily predictions for brighter satellites

Satellite Brightness Start Highest point End
(mag) Time Altitude Azimuth Time Altitude Azimuth Time Altitude Azimuth
SL-16 R/B 2.2 18:03:28 10° SSW 18:09:06 71° ESE 18:14:46 10° NNE
Cosmos 2360 Rocket 2.9 18:04:34 10° SSE 18:09:36 34° ESE 18:14:38 10° NE
Cosmos 292 Rocket 3.8 18:05:33 10° SSW 18:10:22 74° ESE 18:15:12 10° NNE
Cosmos 2322 Rocket 2.3 18:05:45 10° S 18:11:20 59° ESE 18:16:56 10° NE
IGS 5A 3.8 18:08:15 10° S 18:12:22 67° WSW 18:16:33 10° NNW
Cosmos 1025 Rocket 4.4 18:09:39 10° SE 18:13:07 23° E 18:16:36 10° NE
USA 81 4.1 18:09:58 10° N 18:15:17 78° E 18:20:33 10° S
KORONAS-FOTON 4.5 18:12:38 10° SSE 18:16:07 36° E 18:19:37 10° NNE
CARTOSAT-1 4.0 18:13:44 10° SE 18:17:53 49° ENE 18:22:04 10° N
Resurs 01 Rocket 2.2 18:13:57 10° S 18:18:17 56° W 18:22:38 10° NNW
Genesis I 3.4 18:15:19 10° SW 18:19:10 76° NW 18:23:09 10° NE
Cosmos 1461 3.3 18:15:09 10° NNW 18:19:22 56° NE 18:23:22 10° SE
Meteor 1-16 Rocket 4.4 18:14:22 10° N 18:19:48 56° ENE 18:25:03 10° SSE
USA 245 4.1 18:16:15 10° SSE 18:21:02 76° ENE 18:26:49 10° N
Cosmos 1975 Rocket 3.2 18:22:00 10° S 18:26:15 56° E 18:30:34 10° NNE
COSMOS 2428 4.3 18:24:34 10° SE 18:27:57 16° E 18:31:20 10° ENE
SPOT 5 3.4 18:23:10 10° SE 18:28:06 48° ENE 18:32:49 10° N
Cosmos 1980 Rocket 4.4 18:24:38 10° WSW 18:29:34 30° NW 18:34:30 10° NNE
Cosmos 1470 4.2 18:25:53 10° NNW 18:29:35 37° W 18:33:14 10° SSW
ATLAS CENTAUR R/B 2.7 18:27:39 10° NNW 18:31:35 35° NE 18:35:45 10° ESE
Cosmos 2237 4.3 18:27:04 10° SSW 18:32:40 62° ESE 18:38:17 10° NNE
Cosmos 1674 2.7 18:29:28 10° S 18:33:06 56° E 18:36:45 10° NNE
Cosmos 2278 Rocket 4.2 18:30:02 10° N 18:33:59 19° NE 18:37:57 10° E
Terra 2.6 18:31:36 11° SE 18:35:49 40° ENE 18:40:16 10° N
Lacrosse 5 3.0 18:36:47 10° WNW 18:41:16 32° SW 18:45:39 10° S
Cosmos 1300 4.2 18:38:52 10° NNE 18:42:03 24° ENE 18:44:39 13° ESE
Cosmos 1726 4.1 18:40:38 10° NW 18:43:40 25° W 18:46:40 10° SW
Cosmos 1844 Rocket 2.7 18:38:31 10° NNW 18:44:14 81° ENE 18:49:14 14° SSE
Cosmos 2100 Rocket 4.1 18:38:56 10° N 18:45:21 83° E 18:51:39 10° S
Cosmos 1452 Rocket 3.7 18:40:58 10° SSW 18:46:15 77° WNW 18:51:34 10° NNE
NOSS 3-2 (C) 4.1 18:41:28 10° WSW 18:47:07 60° NW 18:53:44 10° NE
SL-8 R/B 3.7 18:45:56 10° WNW 18:50:43 69° SSW 18:55:05 12° ESE
ATLAS 3B R/B 3.1 18:45:34 10° S 18:51:28 37° ESE 18:57:32 10° NE
Cosmos 405 3.9 18:48:59 10° N 18:52:10 33° ENE 18:54:21 17° SE
Cosmos 1850 Rocket 4.4 18:49:50 10° NNW 18:55:03 59° WSW 18:59:53 12° S
ARIANE 5 R/B 2.8 18:51:38 12° S 18:55:47 74° WSW 19:00:17 10° NNW
Cosmos 2263 Rocket 4.3 18:52:54 10° NW 18:56:56 20° W 19:00:57 10° SW
Meteor 2-5 Rocket 4.4 18:54:01 14° SSE 18:58:08 36° E 19:03:12 10° NNE
SPOT 1/Viking Rocket 4.4 18:53:55 10° S 18:58:50 47° W 19:03:49 10° NNW
Cosmos 1340 3.2 18:57:30 17° SSE 19:00:03 40° E 19:03:36 10° NNE
H-2A R/B 4.1 18:56:52 10° NNE 19:00:40 36° E 19:03:15 18° SSE
Geosat 4.2 18:57:16 14° SSE 19:01:32 67° WSW 19:06:34 10° NNW
Cosmos 1908 3.5 18:58:43 10° NNW 19:02:36 66° W 19:05:52 14° S
Cosmos 2173 Rocket 4.2 18:57:04 10° N 19:03:28 79° W 19:09:34 11° S
Spot 2 Rocket 4.0 19:00:17 10° S 19:05:12 57° W 19:10:14 10° NNW
FALCON 9 DEB 3.0 19:02:20 10° SW 19:05:45 75° SSE 19:09:10 10° ENE
Cosmos 2016 Rocket 4.0 19:00:29 10° N 19:06:36 76° E 19:11:40 16° SSE
Cosmos 1544 Rocket 3.6 19:03:13 10° N 19:07:43 86° W 19:11:14 16° S
Cosmos 2333 4.4 19:02:47 10° S 19:08:23 55° ESE 19:13:58 10° NE
ERS-1 Rocket 3.1 19:04:31 14° S 19:08:52 76° WSW 19:13:56 10° NNW
FALCON 9 DEB 3.8 19:08:39 20° S 19:09:50 26° SE 19:12:29 10° E
Cosmos 1331 Rocket 4.0 19:04:57 10° SSW 19:10:12 81° ESE 19:15:30 10° NNE
Cosmos 1455 Rocket 3.9 19:08:13 10° NNW 19:12:31 48° W 19:16:39 11° SSW
USA 215 3.8 19:07:36 10° ENE 19:13:28 34° SE 19:19:20 10° SSW
FALCON 9 DEB 4.4 19:14:23 20° ESE 19:14:23 20° ESE 19:16:01 10° E
Lacrosse 5 rocket 1.0 19:10:05 10° SW 19:13:41 56° SE 19:17:13 10° ENE
Cosmos 1725 Rocket 4.0 19:12:29 10° N 19:18:41 80° E 19:23:32 18° SSE
FALCON 9 DEB 3.6 19:18:26 26° S 19:19:12 29° SE 19:21:58 10° ENE
Cosmos 2333 Rocket 2.4 19:13:59 10° S 19:19:34 56° ESE 19:25:10 10° NE
BREEZE-M DEB (TANK) 2.9 19:24:58 10° WSW 19:27:42 84° SSE 19:34:41 10° ENE
Cosmos 1302 Rocket 4.1 19:24:39 15° S 19:29:01 62° ESE 19:34:13 10° NNE
Meteor 2-10 Rocket 4.0 19:24:32 10° N 19:29:28 47° ENE 19:32:32 21° SE
Centaur D AC-29 4.1 19:09:53 10° WSW 19:30:23 22° SW 19:35:10 15° S
Cosmos 1844 4.1 19:25:26 10° NW 19:30:53 56° WSW 19:34:48 19° S
Cosmos 2219 Rocket 2.3 19:25:59 13° S 19:30:57 58° ESE 19:36:31 10° NE
Cosmos 1953 4.0 19:27:32 10° NNW 19:31:06 29° W 19:34:37 10° SSW
CENTAUR R/B 4.3 19:25:34 10° W 19:31:25 38° NNW 19:38:20 10° NE
Cosmos 1626 2.9 19:29:46 11° SSW 19:33:12 48° WNW 19:36:49 10° N
Cosmos 1802 Rocket 4.4 19:27:12 10° NNW 19:33:22 61° W 19:38:49 14° S
SL-14 R/B 3.4 19:33:14 17° SSW 19:36:18 75° W 19:40:22 10° N
Cosmos 1867 4.0 19:31:00 10° NNW 19:36:26 58° NE 19:40:32 17° ESE
DNEPR-1 R/B 3.5 19:35:44 10° NW 19:39:56 73° SW 19:42:18 26° SSE
Cosmos 1536 Rocket 3.6 19:37:58 18° SSW 19:41:18 82° W 19:45:46 10° N
Meteor 1-24 Rocket 3.6 19:38:57 21° S 19:42:33 67° E 19:48:00 10° NNE
Cosmos 2237 Rocket 3.4 19:45:34 21° SE 19:47:32 25° ESE 19:52:02 10° NE
BREEZE-M DEB (TANK) 3.9 19:46:03 10° W 19:47:33 15° SW 19:47:33 15° SW
USA 267 3.7 19:41:49 10° ESE 19:48:14 61° NNE 19:54:40 10° NW
Cosmos 1025 Rocket 4.4 19:46:27 10° SW 19:50:31 37° WNW 19:54:36 10° N
Cosmos 2360 Rocket 3.3 19:48:06 10° SW 19:53:28 44° NW 19:58:53 10° NNE
Cosmos 389 Rocket 2.6 19:51:57 10° N 19:55:20 58° ENE 19:56:27 36° SE
Cosmos 2322 Rocket 4.2 19:50:50 10° WSW 19:55:46 29° NW 20:00:43 10° NNE
Iridium 2 4.5 19:55:41 29° SE 19:56:51 37° E 20:00:20 10° NNE
Cosmos 2228 3.0 19:53:35 10° N 19:58:00 75° ENE 20:00:06 30° SSE
Cosmos 1486 Rocket 4.0 19:56:48 10° NNW 20:02:03 84° ENE 20:04:53 28° SSE
Cosmos 1455 2.7 20:05:50 10° N 20:09:34 47° ENE 20:10:51 32° SE
ATLAS CENTAUR R/B 2.4 20:06:28 10° NW 20:10:31 38° WSW 20:12:14 27° SSW
Cosmos 968 Rocket 3.6 20:05:47 10° NNW 20:10:51 64° WSW 20:13:28 28° S
COSMOS 2428 2.7 20:06:24 14° SSW 20:11:25 87° WNW 20:17:13 10° NNE
Uosat 12 SS-18 rocket 4.1 20:09:45 20° SSW 20:12:49 78° SE 20:17:52 10° NE
Cosmos 2322 4.1 20:07:48 10° SW 20:13:23 62° WNW 20:19:01 10° NNE
Terra 3.4 20:10:29 14° SW 20:13:41 27° W 20:17:45 10° NW
Cosmos 1354 Rocket 4.4 20:10:26 10° NNW 20:15:43 58° ENE 20:18:45 25° SE
Cosmos 1992 Rocket 4.0 20:13:57 27° S 20:16:47 68° ESE 20:21:59 10° NNE
Cosmos 1184 Rocket 3.8 20:17:13 31° ESE 20:17:27 31° E 20:20:23 10° NNE
Cosmos 1300 4.3 20:14:23 10° NNW 20:17:39 27° W 20:19:35 18° SW
Cosmos 2278 Rocket 2.2 20:13:18 10° NNW 20:19:01 80° ENE 20:22:11 27° SSE
FALCON 9 DEB 2.7 20:23:00 28° WSW 20:24:30 83° SSE 20:27:39 10° ENE
Cosmos 2058 Rocket 3.3 20:23:52 10° N 20:28:18 62° ENE 20:30:02 34° SE
GEOS 3 Rocket 3.8 20:30:12 30° SSE 20:32:48 61° SW 20:38:07 10° NW
Cosmos 1891 Rocket 4.5 20:27:08 10° N 20:33:18 82° E 20:36:44 29° SSE
Cosmos 1726 Rocket 3.7 20:31:34 10° NNW 20:36:02 70° W 20:37:48 35° S
NOSS 0 Rocket 3.9 20:32:46 24° SSW 20:36:43 76° ESE 20:42:58 10° NNE
Cosmos 1346 Rocket 3.5 20:35:48 26° SW 20:37:47 50° WNW 20:41:44 10° N
GENESIS II 4.2 20:37:07 45° S 20:37:56 57° SE 20:41:47 10° NE
Cosmos 1513 Rocket 4.4 20:32:33 10° N 20:38:40 86° E 20:41:56 30° S
ATLAS 3B R/B 3.2 20:35:27 10° WSW 20:41:54 57° NW 20:48:38 10° NE
FALCON 9 DEB 3.5 20:42:13 10° WSW 20:45:16 57° NNW 20:48:20 10° ENE
SL-4 R/B 2.3 20:46:49 39° SE 20:46:49 39° SE 20:49:55 10° ENE
FALCON 9 DEB 3.2 20:46:12 12° WSW 20:48:58 64° NNW 20:52:05 10° ENE
Lacrosse 5 rocket 3.0 20:49:41 10° W 20:52:56 30° NNW 20:56:10 10° NE
Cosmos 1892 Rocket 3.8 20:52:23 33° SSW 20:54:16 66° W 20:58:43 10° N
FALCON 9 DEB 3.6 20:51:39 10° W 20:54:43 53° NNW 20:57:47 10° ENE
SJ 16-02 2.9 20:50:53 10° N 20:54:45 30° ENE 20:57:24 17° ESE
ALOS 2 2.6 20:55:17 40° S 20:56:49 75° WSW 21:01:14 10° NNW
USA 215 3.3 20:50:22 10° NE 20:56:55 84° NNW 21:03:28 10° WSW
Meteor 2-1 Rocket 4.1 20:51:43 10° NNW 20:57:15 82° W 20:59:50 33° S
Cosmos 1980 3.6 20:54:12 27° SSW 20:57:27 88° ESE 21:03:11 10° NNE
Cosmos 1943 Rocket 3.3 20:53:50 10° NNW 20:58:57 38° NE 21:03:32 12° ESE
CZ-3B R/B 4.4 20:35:01 10° WSW 20:59:37 64° NNW 21:04:44 10° ENE
Cosmos 1503 Rocket 4.4 20:56:06 10° NNW 21:01:21 55° WSW 21:03:33 33° SSW
Cosmos 2333 Rocket 3.9 20:59:07 10° WSW 21:04:10 31° NW 21:09:13 10° NNE
Cosmos 1441 Rocket 3.1 21:03:19 50° S 21:04:17 86° ESE 21:08:08 10° NNE
BREEZE-M DEB (TANK) 3.1 21:01:16 10° W 21:04:43 76° N 21:15:03 10° E
Cosmos 1703 3.2 21:04:21 47° SSW 21:05:26 86° W 21:09:24 10° N
USA 32 4.3 21:03:10 10° N 21:08:22 59° E 21:10:46 31° SSE
Cosmos 1464 Rocket 4.3 21:07:48 10° NNW 21:14:02 59° W 21:17:21 28° SSW
Cosmos 2219 Rocket 4.0 21:10:22 10° WSW 21:15:16 29° NW 21:20:11 10° NNE
SAR-Lupe-2 3.4 21:11:49 10° NNE 21:15:26 84° ESE 21:16:08 56° S
Cosmos 1328 3.6 21:16:59 51° S 21:17:54 82° E 21:21:49 10° N
Cosmos 1607 4.2 21:11:55 10° NW 21:18:09 56° WSW 21:20:59 32° S
Thor Agena Rocket 3.6 21:16:38 10° NNE 21:21:54 66° ESE 21:24:03 35° S
Cosmos 1634 Rocket 4.3 21:17:48 10° N 21:24:03 61° ENE 21:27:45 25° SSE
Cosmos 1626 Rocket 3.5 21:22:52 42° S 21:24:23 90° E 21:28:52 10° N
EO 1 Del DPAF 4.4 21:21:31 10° NE 21:24:46 28° E 21:25:25 26° ESE
SL-16 R/B 2.5 21:24:27 33° SSE 21:26:42 53° ESE 21:32:13 10° NE
PSLV R/B 3.9 21:26:32 10° NNE 21:30:46 54° E 21:32:07 38° SSE
Cosmos 2237 Rocket 2.6 21:27:22 20° SW 21:31:12 58° WNW 21:36:46 10° NNE
Cosmos 1602 Rocket 3.6 21:29:45 42° S 21:31:15 77° E 21:35:44 10° NNE
USA 267 3.3 21:27:29 25° SSE 21:31:18 57° SW 21:37:45 10° WNW
Elektron 1 3.6 21:30:05 10° NW 21:33:07 89° WSW 21:33:25 70° SE
Cosmos 1816 Rocket 4.5 21:32:37 30° SSW 21:35:50 75° W 21:41:59 10° N
Cosmos 1758 Rocket 3.9 21:37:10 37° SSE 21:38:38 56° E 21:42:58 10° NNE
Cosmos 2369 Rocket 3.3 21:35:46 10° NNW 21:41:13 43° NE 21:46:38 10° SE
Cosmos 1825 4.3 21:40:36 14° ESE 21:41:55 16° E 21:44:20 10° NE
Meteor 1-4 Rocket 2.9 21:38:53 10° NNW 21:42:14 46° W 21:42:37 43° WSW
Cosmos 1455 4.4 21:42:36 10° NW 21:44:43 14° W 21:45:44 13° WSW
NOSS 2-3 (C) 4.2 21:44:21 33° SE 21:45:05 36° ESE 21:49:22 10° NE
Cosmos 1777 Rocket 4.4 21:46:13 10° NNW 21:51:17 48° WSW 21:53:12 33° SSW
Cosmos-2242 3.0 21:50:29 10° N 21:54:54 83° ENE 21:56:34 38° SSE
Cosmos 1174 4.5 21:55:01 32° SSW 21:57:41 74° ESE 22:02:25 10° NE
Cosmos 2297 3.7 21:56:19 10° NNW 22:01:55 66° WSW 22:04:37 31° S
Cosmos 2278 Rocket 3.9 21:58:46 10° WNW 22:02:23 18° W 22:04:01 16° WSW
Cosmos 1408 3.2 22:03:01 37° SE 22:03:57 47° E 22:07:31 10° NNE
ATLAS CENTAUR R/B 3.9 21:59:32 16° WSW 22:04:29 83° NW 22:20:21 10° NE
Meteor 1-11 4.3 22:02:03 30° SSW 22:04:51 68° WNW 22:10:27 10° N
Cosmos 724 4.5 21:59:01 10° NW 22:05:03 57° WSW 22:08:01 29° S
Meteor 1-27 4.1 21:59:42 10° NNW 22:05:18 84° W 22:08:07 31° S
Cosmos 1812 Rocket 4.1 22:02:42 10° NNW 22:06:50 44° W 22:08:08 34° SW
YAOGAN 11 4.3 22:10:04 28° SSE 22:12:20 69° ENE 22:16:49 10° N
Cosmos 2142 Rocket 4.4 22:10:06 10° N 22:16:15 83° W 22:19:47 27° S
SL-16 R/B 3.5 22:12:45 10° SE 22:18:34 45° ENE 22:24:24 10° N
USA 229 DEB 3.8 22:15:17 29° S 22:18:37 59° ESE 22:25:18 10° NE
USA 229 3.8 22:15:24 29° S 22:18:43 58° ESE 22:25:24 10° NE
Cosmos 990 Rocket 4.0 22:13:42 10° NNW 22:18:56 78° ENE 22:22:20 22° SSE
GP-B 4.1 22:15:25 10° NNW 22:19:28 35° W 22:21:12 26° WSW
Cosmos 1869 3.3 22:19:15 10° NNW 22:23:20 73° W 22:24:46 39° S
Cosmos 2221 3.6 22:20:05 10° N 22:24:10 40° ENE 22:27:04 17° SE
Cosmos 1898 Rocket 3.7 22:20:06 10° NNW 22:25:23 72° ENE 22:29:17 18° SSE
SL-4 R/B 2.2 22:22:18 11° W 22:25:53 60° NNW 22:29:27 10° ENE
Aureole 3 4.3 22:23:44 10° NNW 22:27:07 34° W 22:28:14 29° SW
NOSS 3-1 (C) 3.3 22:25:09 26° SW 22:28:25 85° NW 22:34:50 10° NE
Cosmos 1937 Rocket 4.1 22:23:41 10° NNW 22:28:57 58° ENE 22:33:56 11° SE
Cosmos 1437 Rocket 3.4 22:25:10 10° N 22:29:00 50° ENE 22:31:06 23° SE
In-Cosmos 22 Rocket 4.1 22:27:48 29° SSW 22:30:46 84° W 22:36:18 10° N
Lacrosse 5 rocket 3.9 22:30:15 10° NW 22:32:53 19° N 22:35:32 10° NE
SJ 16-02 2.3 22:29:25 10° NW 22:33:19 32° WSW 22:34:21 28° SW
Cosmos 1825 Rocket 3.9 22:35:13 31° SW 22:37:08 54° WNW 22:41:32 10° N
NOSS 2-3 (E) 3.6 22:35:35 30° SW 22:37:38 82° NW 22:42:34 10° NE
NOSS 3-1 (A) 3.3 22:35:15 28° SSW 22:38:09 70° SE 22:44:26 10° NE
USA 215 4.3 22:33:25 10° ENE 22:39:34 45° NNW 22:45:43 10° W
NOSS 8 (F) 4.1 22:40:11 45° SW 22:41:01 80° NW 22:44:00 10° NE
Cosmos 1943 3.6 22:39:26 25° S 22:42:31 53° ESE 22:48:01 10° NE
MOZ.5/SAFIR/RUBIN 5/SL-8 3.7 22:39:50 26° SSE 22:42:32 84° WSW 22:47:20 10° NNW
Cosmos 1943 Rocket 2.7 22:37:37 10° NW 22:42:43 40° WSW 22:45:01 27° SSW
Cosmos 1892 3.3 22:42:44 31° SW 22:44:07 46° WNW 22:47:53 10° N
Cosmos 2058 3.1 22:42:43 30° SSE 22:44:36 64° E 22:48:40 10° NNE
Cosmos 1633 4.4 22:43:39 14° SE 22:45:40 22° E 22:48:29 10° NE
NPP 4.5 22:42:09 10° NNE 22:47:18 43° E 22:51:00 18° SSE
Cosmos 1356 3.8 22:47:36 36° SW 22:48:35 49° WNW 22:51:55 10° N
Resurs 1-4 Rocket 2.6 22:43:28 10° NNE 22:48:41 54° E 22:52:06 21° S
Cosmos 1603 3.9 22:45:37 25° S 22:48:52 62° ESE 22:54:27 10° NNE
Aureole 3 Rocket 4.0 22:48:02 10° N 22:51:34 43° ENE 22:56:02 11° SSE
ARGOS Delta rocket 4.3 22:49:51 10° NNE 22:55:21 69° E 22:58:57 22° S
Cosmos 468 Rocket 4.0 22:57:16 25° SSW 23:00:17 73° WNW 23:05:32 10° NNE
CZ-2D R/B 2.3 22:55:05 10° NNE 23:00:18 65° ESE 23:03:44 21° S
Cosmos 1953 Rocket 4.1 22:58:35 26° SW 23:00:40 46° WNW 23:04:56 10° N
ADEOS Rocket 4.0 22:53:48 10° SE 23:00:53 54° ENE 23:07:19 10° N
ADEOS II 3.3 22:59:39 10° NNE 23:04:29 36° E 23:08:51 12° SSE
Cosmos 858 Rocket 4.5 22:59:52 10° NNW 23:05:11 79° WSW 23:09:34 15° SSE
Helios 1B rocket 2.9 23:02:34 10° NNE 23:06:36 54° E 23:09:04 22° S
Helios 1A 3.7 23:05:25 27° SW 23:07:00 37° W 23:10:54 10° NNW
NOSS 8 (H) 4.1 23:05:58 34° SW 23:07:09 75° NW 23:10:07 10° NE
Cosmos 2098 Rocket 3.5 23:04:11 22° S 23:08:00 88° E 23:12:39 10° N
CREW DRAGON DEMO-1 DEB 2.1 23:08:55 60° SW 23:09:16 83° SSE 23:11:44 10° ENE
Cosmos 372 Rocket 4.2 23:05:20 10° NNW 23:10:36 74° ENE 23:15:51 10° SSE
SL-16 R/B 3.6 23:06:18 11° WSW 23:11:06 31° NW 23:16:08 10° NNE
CZ-4 R/B 4.5 23:10:42 10° N 23:15:06 43° WNW 23:17:57 20° SW
USA 308 4.3 23:14:49 19° SSE 23:16:32 25° SE 23:20:00 10° ENE
Cosmos 405 Rocket 3.5 23:15:08 23° WSW 23:16:47 36° WNW 23:20:13 10° N
Meteor 2-8 Rocket 4.4 23:10:47 10° NNW 23:16:55 74° W 23:21:52 16° S
Cosmos 1825 2.9 23:15:22 25° SW 23:17:04 39° WNW 23:20:39 10° N
X-37B 0.8 23:16:05 31° SW 23:17:14 49° S 23:20:19 10° E
NOSS 2-3 (D) 4.5 23:15:21 15° WSW 23:18:39 46° NW 23:23:31 10° NE
Cosmos 1763 Rocket 3.9 23:15:33 20° SW 23:18:51 52° WNW 23:23:53 10° NNE
Cosmos 1842 Rocket 3.7 23:15:00 10° NNW 23:19:15 57° W 23:21:51 22° SSW
IDEFIX/ARIANE 42P 4.2 23:18:05 10° NE 23:22:37 28° E 23:27:05 10° SSE
Cosmos 2369 Rocket 2.9 23:20:00 10° NW 23:25:11 36° WSW 23:28:37 19° SSW
NOSS 2-2 (D) 4.3 23:24:14 19° SSE 23:25:58 30° ESE 23:29:11 10° ENE
Cosmos 1656 Rocket 3.9 23:22:00 10° NW 23:27:32 53° WSW 23:32:28 13° S
Meteor 1-29 3.6 23:27:05 10° NNE 23:30:25 48° E 23:32:48 17° S
Lacrosse 4 Rocket 1.9 23:26:24 10° NNW 23:30:30 59° NE 23:34:30 10° SE
Cosmos 921 Rocket 2.9 23:32:13 21° SSW 23:35:01 88° WNW 23:39:14 10° NNE
USA 305 3.8 23:33:06 20° SSW 23:35:28 36° SE 23:39:22 10° ENE
Cosmos 1933 3.9 23:33:36 10° N 23:37:39 57° ENE 23:41:41 10° SSE
Cosmos 1437 2.3 23:35:51 10° NNW 23:38:38 67° W 23:40:13 23° S
DELTA 2 R/B (1) 4.4 23:35:48 18° SW 23:38:58 32° S 23:43:50 10° ESE
USA 290 2.4 23:42:42 20° S 23:44:46 63° ESE 23:47:58 10° NNE
OE (NEXTSAT) 4.5 23:43:26 18° WSW 23:45:46 53° SSE 23:49:09 10° E
ATLAS 5 CENTAUR R/B 2.0 23:43:06 18° SSW 23:45:50 48° ESE 23:50:06 10° NE
UNK 4.3 23:44:22 17° SSW 23:47:31 40° W 23:51:53 10° NNW
Cosmos 2026 Rocket 4.0 23:43:49 14° S 23:49:23 84° W 23:55:46 10° N
Cosmos 1242 Rocket 3.6 23:48:59 10° NNW 23:52:09 29° W 23:54:08 18° SW
IRS-1D 3.7 23:47:02 10° NNE 23:52:12 70° ESE 23:57:04 11° S
Cosmos 1076 Rocket 3.8 23:49:34 17° SSW 23:52:35 50° WNW 23:56:44 10° N
Cosmos 2151 2.9 23:51:08 15° S 23:54:38 83° W 23:58:52 10° N
